Location: Unspecified
(37.0088°N, 0.0000°E)
Time: 03:26:03
(UTC+00:00)

OPS 7202 - Visible Passes

Search period start: 04 April 2026 00:00
Search period end: 14 April 2026 00:00
Orbit: 814 x 868 km, 98.6° (Epoch: 29 March)

Date Brightness Start Highest point End Pass type
(mag) Time Alt. Az. Time Alt. Az. Time Alt. Az.
4 Apr 7.5 20:14:05 10° N 20:19:28 64° WNW 20:24:45 10° SSW visible
5 Apr 7.1 19:59:27 10° NNE 20:04:55 87° WNW 20:10:16 10° SSW visible
5 Apr 10.2 21:43:32 10° NW 21:44:33 10° WNW 21:45:33 10° WNW visible
6 Apr 7.1 19:44:55 10° NNE 19:50:20 69° ESE 19:55:39 10° S visible
6 Apr 10.0 21:27:21 10° NNW 21:30:12 15° WNW 21:33:01 10° W visible
7 Apr 7.3 19:30:28 10° NNE 19:35:44 50° E 19:40:53 10° S visible
7 Apr 9.6 21:12:02 10° NNW 21:15:48 20° WNW 21:19:33 10° WSW visible
8 Apr 7.7 19:16:08 10° NNE 19:21:05 36° E 19:25:57 10° SSE visible
8 Apr 9.2 20:56:58 10° NNW 21:01:23 26° WNW 21:05:45 10° WSW visible
9 Apr 8.0 19:01:55 10° NE 19:06:24 26° E 19:10:49 10° SSE visible
9 Apr 8.7 20:42:05 10° N 20:46:56 35° WNW 20:51:44 10° SW visible
10 Apr 8.1 20:27:17 10° N 20:32:27 47° WNW 20:37:32 10° SW visible
11 Apr 7.5 20:12:35 10° N 20:17:55 65° WNW 20:23:11 10° SSW visible
12 Apr 7.1 19:57:57 10° NNE 20:03:22 89° WNW 20:08:42 10° SSW visible
12 Apr 10.2 21:41:58 10° NW 21:43:02 11° WNW 21:44:06 10° WNW visible
13 Apr 7.1 19:43:25 10° NNE 19:48:47 68° E 19:54:04 10° S visible
13 Apr 10.0 21:25:49 10° NNW 21:28:40 15° WNW 21:31:31 10° W visible
